Content
SEND FEEDBACK

Daily
Averages
Monthly
Summary
United States of America

MILAN, MICHIGAN


Home > North America > United States > Michigan
Elevation: 660 feet     Latitude: 42 05N     Longitude: 083 35W

WEATHER
 
SELECT A DAY
Number of Records: 206,697;   Date Range: 1/1/95 - 11/24/14
 
SHARE

PRINT THIS DATA

[ ← Previous Day ]
WEATHER ALMANAC - SEPTEMBER 1, 2013
[ Next Day → ]
[ °C ]   °F
Weather ElementAverageHighLow
Temperature76.9 °F84.2 °F (5:30 pm)71.1 °F (4:53 am)
Dewpoint67.2 °F71.1 °F (7:53 pm)64 °F (1:53 am)
Humidity72.3 %82 % (8:53 pm)61 % (4:53 pm)
Barometer29.79 in29.87 in (1:26 am)29.72 in (7:53 pm)
Wind Speed4.8 mph9.2 mph (11:53 pm)
Weather ElementAverage
Visibility8.2 mi
Wind DirectionE (88.4 °)

Weather ElementTotal
Precipitation---
Cooling Degree Days12.7 (Base 65)
Growing Degree Days27.7 (Base 50)
Averaged from 38 records on September 1, 2013
WEATHER CONDITIONS BREAKOUT
WIND DIRECTION BREAKOUT
WEATHER BY HOUR - SEPTEMBER 1, 2013
[ °C ]   °F
Local TimeTemperatureDewpointHumidityBarometerVisibilityWind DirectionWind SpeedGust SpeedPrecipitationEventsConditions
12:53 AM73.0 °F66.0 °F79 %29.85 in8.0 miNE (40°)5.8 mphOvercast
1:26 AM73.4 °F64.4 °F73 %29.87 in7.0 miENE (70°)5.8 mphOvercast
1:53 AM72.0 °F64.0 °F76 %29.84 in8.0 miNE (50°)8.1 mphOvercast
2:30 AM71.6 °F64.4 °F78 %29.85 in8.0 miNE (50°)4.6 mphOvercast
2:41 AM71.6 °F64.4 °F78 %29.85 in8.0 miNE (40°)5.8 mphOvercast
2:53 AM72.0 °F64.0 °F76 %29.82 in8.0 miNE (50°)4.6 mphOvercast
3:53 AM72.0 °F64.9 °F78 %29.81 in7.0 miCalm0.00 inRainLight Rain
4:07 AM71.6 °F64.4 °F78 %29.82 in8.0 miENE (60°)4.6 mph0.00 inRainLight Rain
4:53 AM71.1 °F64.9 °F81 %29.79 in7.0 miEast (100°)3.5 mph0.00 inOvercast
5:53 AM71.1 °F64.9 °F81 %29.79 in8.0 miNorth (10°)3.5 mphOvercast
6:53 AM72.0 °F64.9 °F78 %29.81 in8.0 miENE (70°)3.5 mphOvercast
7:53 AM72.0 °F64.9 °F78 %29.80 in7.0 miNE (40°)4.6 mphOvercast
8:53 AM72.0 °F64.9 °F78 %29.80 in7.0 miENE (70°)4.6 mphOvercast
9:53 AM73.9 °F64.9 °F73 %29.78 in8.0 miENE (70°)5.8 mphOvercast
10:17 AM75.2 °F66.2 °F73 %29.81 in9.0 miESE (110°)5.8 mphMostly Cloudy
10:53 AM75.0 °F66.0 °F73 %29.79 in10.0 miEast (100°)6.9 mphOvercast
11:53 AM75.9 °F66.9 °F74 %29.80 in10.0 miESE (120°)6.9 mphOvercast
12:25 PM77.0 °F66.2 °F69 %29.82 in10.0 miESE (120°)5.8 mphOvercast
12:53 PM77.0 °F66.9 °F71 %29.80 in10.0 miCalmOvercast
1:27 PM78.8 °F66.2 °F65 %29.81 in10.0 miESE (110°)5.8 mphOvercast
1:53 PM81.0 °F68.0 °F65 %29.77 in8.0 miESE (120°)6.9 mphMostly Cloudy
2:21 PM82.4 °F69.8 °F66 %29.80 in10.0 miVariable3.5 mphScattered Clouds
2:41 PM80.6 °F69.8 °F70 %29.79 in7.0 miESE (120°)5.8 mphMostly Cloudy
2:53 PM81.0 °F69.1 °F67 %29.76 in7.0 miESE (120°)5.8 mphMostly Cloudy
3:16 PM82.4 °F69.8 °F66 %29.78 in8.0 miESE (110°)4.6 mphOvercast
3:53 PM82.9 °F70.0 °F65 %29.75 in8.0 miVariable4.6 mphOvercast
4:20 PM82.4 °F69.8 °F66 %29.77 in9.0 miSouth (190°)4.6 mphMostly Cloudy
4:53 PM84.0 °F69.1 °F61 %29.74 in9.0 miVariable3.5 mphMostly Cloudy
5:30 PM84.2 °F69.8 °F62 %29.76 in9.0 miCalmScattered Clouds
5:51 PM84.2 °F69.8 °F62 %29.76 in10.0 miSouth (180°)5.8 mphMostly Cloudy
5:53 PM84.0 °F69.1 °F61 %29.73 in10.0 miCalmMostly Cloudy
6:02 PM84.2 °F69.8 °F62 %29.75 in9.0 miSouth (170°)4.6 mphMostly Cloudy
6:53 PM82.0 °F70.0 °F67 %29.73 in8.0 miSE (130°)5.8 mphClear
7:53 PM79.0 °F71.1 °F77 %29.72 in5.0 miSSE (150°)6.9 mphHaze
8:53 PM75.9 °F70.0 °F82 %29.74 in6.0 miSouth (170°)4.6 mphHaze
9:53 PM75.9 °F68.0 °F76 %29.75 in8.0 miSSW (210°)5.8 mphClear
10:53 PM73.9 °F68.0 °F82 %29.75 in8.0 miSSW (210°)4.6 mphClear
11:53 PM75.0 °F69.1 °F82 %29.75 in8.0 miSSW (200°)9.2 mphScattered Clouds
Hourly data recorded from KYIP, located miles away from Milan, Michigan







STORIES FROM OUR PARTNERS